Regional Weather Roundup
Issued by NWS Nashville, TN

Current Version | Previous Version | Text Only | Print | Product List | Glossary Off
Versions: 1 2 3 4 5 6 7 8 9 10 11 12 13 14 15 16 17 18 19 20 21 22 23 24 25 26 27 28 29 30 31 32 33 34 35 36 37 38 39 40 41 42 43 44 45 46 47 48 49 50

910
ASUS44 KOHX 051210
RWROHX
MIDDLE TENNESSEE HOURLY WEATHER ROUNDUP
NATIONAL WEATHER SERVICE NASHVILLE TN
600 AM CST MON DEC 05 2016

NOTE: "FAIR" INDICATES FEW OR NO CLOUDS BELOW 12,000 FEET WITH
NO SIGNIFICANT WEATHER AND/OR OBSTRUCTIONS TO VISIBILITY.

* THESE REPORTS ARE NOT UNDER NWS QUALITY CONTROL AND MAY NOT
  REPORT WEATHER SUCH AS PRECIPITATION AND FOG.


TNZ005>011-023>034-057-059-062>066-078-080-051300
...NORTHERN MIDDLE TENNESSEE...

CITY           SKY/WX    TMP DP  RH WIND       PRES   REMARKS
CLARKSVILLE    CLOUDY    39  34  82 NE7       30.07R WCI  34
CROSSVILLE     CLOUDY    43  42  97 N7        30.02R
LEBANON        CLOUDY    41  40  96 N7        30.03S
NASHVILLE      CLOUDY    44  39  82 N10       30.05F
PORTLAND       CLOUDY    39  37  93 N8        30.05F WCI  34
SMYRNA         CLOUDY    44  41  89 N7        30.06R
SPRINGFIELD    CLOUDY    39  36  87 NE7       30.05S WCI  34
WEST NASHVILLE CLOUDY    39  37  93 N6        30.06R WCI  35
$$
TNZ056-058-060-061-075>077-079-093>097-051300
...SOUTHERN MIDDLE TENNESSEE...

CITY           SKY/WX    TMP DP  RH WIND       PRES   REMARKS
COLUMBIA       CLOUDY   N/A N/A N/A N5        30.02R
FAYETTEVILLE   CLOUDY    45  45 100 N8G15     30.00S FOG
MCMINNVILLE    CLOUDY    45  45 100 N6        30.02S
MURFREESBORO   CLOUDY    43  43 100 NE6       30.04S
SHELBYVILLE    CLOUDY    45  45 100 N6        30.04R
TULLAHOMA      CLOUDY    43  43 100 NE5       30.02S
WINCHESTER     CLOUDY    45  45 100 NE8       30.01S
$$


...KEY TO REMARKS...
VSB - VISIBILITY IN MILES
WCI - WIND CHILL INDEX
HX  - HEAT INDEX





USA.gov is the U.S. government's official web portal to all federal, state and local government web resources and services.